Location: El Mouella
(16.4949°N, 9.1594°W)
Time: 02:19:10
(UTC+00:00)

H-2A R/B - Pass Details

Date: 27 September 2020
Orbit: 734 x 836 km, 98.2° (Epoch: 20 October)

Event Time Altitude Azimuth Distance (km) Brightness Sun altitude
Exits shadow 21:10:13 13° 240° (WSW) 2,060 4.6 -39.4°
Maximum altitude 21:11:53 15° 262° (W) 1,944 4.6 -39.8°
Drops below altitude 10° 21:14:38 10° 296° (WNW) 2,271 5.1 -40.5°
Sets 21:17:58 0° 320° (NW) 3,217 5.8 -41.3°
